Location: Amsterdam
(30.7274°N, 84.4357°W)
Time: 18:43:18
(UTC+00:00)

Courier 1B Rocket - Pass Details

Date: 14 February 2026
Orbit: 920 x 1201 km, 28.2° (Epoch: 10 March)

Event Time Altitude Azimuth Distance (km) Brightness Sun altitude
Rises 00:24:34 0° 217° (SW) 3,543 8.7 -13.6°
Reaches altitude 10° 00:27:40 10° 203° (SSW) 2,617 7.7 -14.2°
Maximum altitude 00:32:29 23° 153° (SSE) 1,883 6.3 -15.3°
Enters shadow 00:35:28 17° 117° (ESE) 2,231 6.4 -15.9°
Drops below altitude 10° 00:37:29 10° 103° (ESE) 2,723 - -16.3°
Sets 00:40:46 0° 89° (E) 3,721 - -17.0°
